QPF
0.00 0.00 0.00 0.00 0.00 0.00 0.00 0.00 0.00 0.00 0.00 0.00 0.00 0.00 0.00 0.00 0.00 0.00 0.00 0.00 0.00 0.00 0.00 0.00 0.00 0.00 0.00 0.00 0.00 0.00 0.00 0.01 0.01 0.01 0.01 0.02 0.03 0.02 0.02 0.02 0.02 0.03 0.04 0.04
0.00 0.00 0.00 0.00 0.00 0.00 0.00 0.00 0.00 0.00 0.00 0.00 0.00 0.00 0.00 0.00 0.00 0.00 0.00 0.00 0.00 0.00 0.00 0.00 0.00 0.00 0.00 0.00 0.00 0.00 0.00 0.01 0.00 0.00 0.00 0.01 0.01 0.01 0.02 0.02 0.02 0.04 0.05 0.03
0.00 0.00 0.00 0.00 0.00 0.00 0.00 0.00 0.00 0.00 0.00 0.00 0.00 0.00 0.00 0.00 0.00 0.00 0.00 0.00 0.00 0.00 0.00 0.00 0.00 0.00 0.00 0.00 0.00 0.00 0.00 0.00 0.00 0.00 0.00 0.00 0.01 0.01 0.01 0.01 0.01 0.03 0.04 0.02
0.00 0.00 0.00 0.00 0.00 0.00 0.00 0.00 0.00 0.00 0.00 0.00 0.00 0.00 0.00 0.00 0.00 0.00 0.00 0.00 0.00 0.00 0.00 0.00 0.00 0.00 0.00 0.00 0.00 0.00 0.00 0.00 0.00 0.00 0.00 0.00 0.01 0.01 0.01 0.01 0.01 0.02 0.02 0.01
0.00 0.00 0.00 0.00 0.00 0.00 0.00 0.00 0.00 0.00 0.00 0.00 0.00 0.00 0.00 0.00 0.00 0.00 0.00 0.00 0.00 0.00 0.00 0.00 0.00 0.00 0.00 0.00 0.00 0.00 0.00 0.00 0.00 0.00 0.00 0.00 0.00 0.00 0.00 0.00 0.00 0.01 0.02 0.01
0.00 0.00 0.00 0.00 0.00 0.00 0.00 0.00 0.00 0.00 0.00 0.00 0.00 0.00 0.00 0.00 0.00 0.00 0.00 0.00 0.00 0.00 0.00 0.00 0.00 0.00 0.00 0.00 0.00 0.00 0.00 0.00 0.00 0.00 0.00 0.00 0.00 0.00 0.00 0.00 0.00 0.00 0.02 0.02
0.00 0.00 0.00 0.00 0.00 0.00 0.00 0.00 0.00 0.00 0.00 0.00 0.00 0.00 0.00 0.00 0.00 0.00 0.00 0.00 0.00 0.00 0.00 0.00 0.00 0.00 0.00 0.00 0.00 0.00 0.00 0.00 0.00 0.00 0.00 0.00 0.00 0.00 0.00 0.00 0.00 0.00 0.01 0.01
0.00 0.00 0.00 0.00 0.00 0.00 0.00 0.00 0.00 0.00 0.00 0.00 0.00 0.00 0.00 0.00 0.00 0.00 0.00 0.00 0.00 0.00 0.00 0.00 0.00 0.00 0.00 0.00 0.00 0.00 0.00 0.00 0.00 0.00 0.00 0.00 0.00 0.00 0.00 0.00 0.00 0.00 0.01 0.01
0.00 0.00 0.00 0.00 0.00 0.00 0.00 0.00 0.00 0.00 0.00 0.00 0.00 0.00 0.00 0.00 0.00 0.00 0.00 0.00 0.00 0.00 0.00 0.00 0.00 0.00 0.00 0.00 0.00 0.00 0.00 0.00 0.00 0.00 0.00 0.00 0.00 0.00 0.00 0.00 0.00 0.00 0.00 0.00
0.00 0.00 0.00 0.00 0.00 0.00 0.00 0.00 0.00 0.00 0.00 0.00 0.00 0.00 0.00 0.00 0.00 0.00 0.00 0.00 0.00 0.00 0.00 0.00 0.00 0.00 0.00 0.00 0.00 0.00 0.00 0.00 0.00 0.00 0.00 0.00 0.00 0.00 0.00 0.00 0.00 0.00 0.00 0.00
0.00 0.00 0.00 0.00 0.00 0.00 0.00 0.00 0.00 0.00 0.00 0.00 0.00 0.00 0.00 0.00 0.00 0.00 0.00 0.00 0.00 0.00 0.00 0.00 0.00 0.00 0.00 0.00 0.00 0.00 0.00 0.00 0.00 0.00 0.00 0.00 0.00 0.00 0.00 0.00 0.00 0.00 0.00 0.00
0.00 0.00 0.00 0.00 0.00 0.00 0.00 0.00 0.00 0.00 0.00 0.00 0.00 0.00 0.00 0.00 0.00 0.00 0.00 0.00 0.00 0.00 0.00 0.00 0.00 0.00 0.00 0.00 0.00 0.00 0.00 0.00 0.00 0.00 0.00 0.00 0.00 0.00 0.00 0.00 0.00 0.00 0.00 0.00
0.00 0.00 0.00 0.00 0.00 0.00 0.00 0.00 0.00 0.00 0.00 0.00 0.00 0.00 0.00 0.00 0.00 0.00 0.00 0.00 0.00 0.00 0.00 0.00 0.00 0.00 0.00 0.00 0.00 0.00 0.00 0.00 0.00 0.00 0.00 0.00 0.00 0.00 0.00 0.00 0.00 0.00 0.00 0.00
0.00 0.00 0.00 0.00 0.00 0.00 0.00 0.00 0.00 0.00 0.00 0.00 0.00 0.00 0.00 0.00 0.00 0.00 0.00 0.00 0.00 0.00 0.00 0.00 0.00 0.00 0.00 0.00 0.00 0.00 0.00 0.00 0.00 0.00 0.00 0.00 0.00 0.00 0.00 0.00 0.00 0.00 0.00 0.00
0.00 0.00 0.00 0.00 0.00 0.00 0.00 0.00 0.00 0.00 0.00 0.00 0.00 0.00 0.00 0.00 0.00 0.00 0.00 0.00 0.00 0.00 0.00 0.00 0.00 0.00 0.00 0.00 0.00 0.00 0.00 0.00 0.00 0.00 0.00 0.00 0.00 0.00 0.00 0.00 0.00 0.00 0.00 0.00
0.00 0.00 0.00 0.00 0.00 0.00 0.00 0.00 0.00 0.00 0.00 0.00 0.00 0.00 0.00 0.00 0.00 0.00 0.00 0.00 0.00 0.00 0.00 0.00 0.00 0.00 0.00 0.00 0.00 0.00 0.00 0.00 0.00 0.00 0.00 0.00 0.00 0.00 0.00 0.00 0.00 0.00 0.00 0.00
0.00 0.00 0.00 0.00 0.00 0.00 0.00 0.00 0.00 0.00 0.00 0.00 0.00 0.00 0.00 0.00 0.00 0.00 0.00 0.00 0.00 0.00 0.00 0.00 0.00 0.00 0.00 0.00 0.00 0.00 0.00 0.00 0.00 0.00 0.00 0.00 0.00 0.00 0.00 0.00 0.00 0.00 0.00 0.00
0.00 0.00 0.00 0.00 0.00 0.00 0.00 0.00 0.00 0.00 0.00 0.00 0.00 0.00 0.00 0.00 0.00 0.00 0.00 0.00 0.00 0.00 0.00 0.00 0.00 0.00 0.00 0.00 0.00 0.00 0.00 0.00 0.00 0.00 0.00 0.00 0.00 0.00 0.00 0.00 0.00 0.00 0.00 0.00
0.00 0.00 0.00 0.00 0.00 0.00 0.00 0.00 0.00 0.00 0.00 0.00 0.00 0.00 0.00 0.00 0.00 0.00 0.00 0.00 0.00 0.00 0.00 0.00 0.00 0.00 0.00 0.00 0.00 0.00 0.00 0.00 0.00 0.00 0.00 0.00 0.00 0.00 0.00 0.00 0.00 0.00 0.00 0.00
0.00 0.00 0.00 0.00 0.00 0.00 0.00 0.00 0.00 0.00 0.00 0.00 0.00 0.00 0.00 0.00 0.00 0.00 0.00 0.00 0.00 0.00 0.00 0.00 0.00 0.00 0.00 0.00 0.00 0.00 0.00 0.00 0.00 0.00 0.00 0.00 0.00 0.00 0.00 0.00 0.00 0.00 0.00 0.00
0.00 0.00 0.00 0.00 0.00 0.00 0.00 0.00 0.00 0.00 0.00 0.00 0.00 0.00 0.00 0.00 0.00 0.00 0.00 0.00 0.00 0.00 0.00 0.00 0.00 0.00 0.00 0.00 0.00 0.00 0.00 0.00 0.00 0.00 0.00 0.00 0.00 0.00 0.00 0.00 0.00 0.00 0.00 0.00
0.00 0.00 0.00 0.00 0.00 0.00 0.00 0.00 0.00 0.00 0.00 0.00 0.00 0.00 0.00 0.00 0.00 0.00 0.00 0.00 0.00 0.00 0.00 0.00 0.00 0.00 0.00 0.00 0.00 0.00 0.00 0.00 0.00 0.00 0.00 0.00 0.00 0.00 0.00 0.00 0.00 0.00 0.00 0.00
0.00 0.00 0.00 0.00 0.00 0.00 0.00 0.00 0.00 0.00 0.00 0.00 0.00 0.00 0.00 0.00 0.00 0.00 0.00 0.00 0.00 0.00 0.00 0.00 0.00 0.00 0.00 0.00 0.00 0.00 0.00 0.00 0.00 0.00 0.00 0.00 0.00 0.00 0.00 0.00 0.00 0.00 0.00 0.00
0.00 0.00 0.00 0.00 0.00 0.00 0.00 0.00 0.00 0.00 0.00 0.00 0.00 0.00 0.00 0.00 0.00 0.00 0.00 0.00 0.00 0.00 0.00 0.00 0.00 0.00 0.00 0.00 0.00 0.00 0.00 0.00 0.00 0.00 0.00 0.00 0.00 0.00 0.00 0.00 0.00 0.00 0.00 0.00
0.00 0.00 0.00 0.00 0.00 0.00 0.00 0.00 0.00 0.00 0.00 0.00 0.00 0.00 0.00 0.00 0.00 0.00 0.00 0.00 0.00 0.00 0.00 0.00 0.00 0.00 0.00 0.00 0.00 0.00 0.00 0.00 0.00 0.00 0.00 0.00 0.00 0.00 0.00 0.00 0.00 0.00 0.00 0.01
0.00 0.00 0.00 0.00 0.00 0.00 0.00 0.00 0.00 0.00 0.00 0.00 0.00 0.00 0.00 0.00 0.00 0.00 0.00 0.00 0.00 0.00 0.00 0.00 0.00 0.00 0.00 0.00 0.00 0.00 0.00 0.00 0.00 0.00 0.00 0.00 0.00 0.00 0.01 0.01 0.01 0.01 0.01 0.01
0.00 0.00 0.00 0.00 0.00 0.00 0.00 0.00 0.00 0.00 0.00 0.00 0.00 0.00 0.00 0.00 0.00 0.00 0.00 0.00 0.00 0.00 0.00 0.00 0.00 0.00 0.00 0.00 0.00 0.00 0.00 0.00 0.00 0.00 0.00 0.00 0.00 0.01 0.01 0.01 0.01 0.01 0.01 0.01
MSLP
1012.31 1012.59 1012.84 1013.06 1013.24 1013.36 1013.39 1013.32 1013.14 1012.84 1012.45 1012.00 1011.53 1011.10 1010.75 1010.52 1010.42 1010.44 1010.57 1010.77 1011.01 1011.25 1011.46 1011.64 1011.78 1011.90 1012.01 1012.12 1012.25 1012.39 1012.53 1012.66 1012.75 1012.79 1012.76 1012.66 1012.51 1012.30 1012.05 1011.79 1011.50 1011.21 1010.89 1010.55
1012.43 1012.63 1012.76 1012.83 1012.84 1012.79 1012.69 1012.52 1012.29 1012.00 1011.67 1011.33 1010.99 1010.69 1010.46 1010.31 1010.27 1010.31 1010.43 1010.61 1010.82 1011.04 1011.25 1011.44 1011.63 1011.79 1011.96 1012.12 1012.29 1012.45 1012.60 1012.71 1012.79 1012.81 1012.77 1012.66 1012.50 1012.29 1012.05 1011.79 1011.50 1011.19 1010.85 1010.48
1012.59 1012.70 1012.71 1012.63 1012.48 1012.28 1012.04 1011.79 1011.52 1011.24 1010.97 1010.72 1010.50 1010.33 1010.21 1010.15 1010.15 1010.21 1010.33 1010.48 1010.67 1010.87 1011.07 1011.28 1011.49 1011.69 1011.90 1012.10 1012.30 1012.47 1012.62 1012.72 1012.77 1012.77 1012.71 1012.59 1012.43 1012.23 1011.99 1011.73 1011.45 1011.14 1010.80 1010.43
1012.71 1012.72 1012.61 1012.40 1012.12 1011.79 1011.46 1011.13 1010.83 1010.56 1010.35 1010.18 1010.06 1009.99 1009.96 1009.98 1010.03 1010.11 1010.23 1010.37 1010.53 1010.71 1010.90 1011.11 1011.34 1011.57 1011.80 1012.03 1012.23 1012.41 1012.55 1012.64 1012.68 1012.65 1012.58 1012.45 1012.29 1012.09 1011.87 1011.62 1011.36 1011.07 1010.76 1010.41
1012.71 1012.62 1012.41 1012.09 1011.71 1011.29 1010.88 1010.51 1010.19 1009.95 1009.78 1009.68 1009.64 1009.66 1009.71 1009.78 1009.87 1009.98 1010.10 1010.22 1010.37 1010.53 1010.71 1010.92 1011.14 1011.38 1011.63 1011.86 1012.07 1012.25 1012.39 1012.46 1012.49 1012.45 1012.37 1012.24 1012.09 1011.90 1011.70 1011.48 1011.25 1010.99 1010.71 1010.41
1012.52 1012.34 1012.03 1011.64 1011.19 1010.73 1010.29 1009.91 1009.60 1009.38 1009.25 1009.21 1009.24 1009.32 1009.43 1009.55 1009.67 1009.79 1009.91 1010.03 1010.16 1010.31 1010.48 1010.67 1010.89 1011.12 1011.36 1011.60 1011.81 1011.98 1012.11 1012.19 1012.20 1012.17 1012.09 1011.98 1011.84 1011.68 1011.51 1011.32 1011.13 1010.91 1010.68 1010.42
1012.11 1011.83 1011.47 1011.04 1010.58 1010.11 1009.68 1009.32 1009.05 1008.87 1008.79 1008.79 1008.87 1008.99 1009.13 1009.29 1009.43 1009.57 1009.69 1009.81 1009.93 1010.05 1010.20 1010.38 1010.58 1010.80 1011.03 1011.25 1011.45 1011.62 1011.74 1011.82 1011.84 1011.82 1011.76 1011.67 1011.56 1011.44 1011.30 1011.15 1011.00 1010.84 1010.66 1010.46
1011.47 1011.13 1010.75 1010.32 1009.88 1009.47 1009.09 1008.79 1008.57 1008.44 1008.41 1008.45 1008.56 1008.71 1008.87 1009.04 1009.20 1009.35 1009.47 1009.58 1009.69 1009.80 1009.93 1010.08 1010.25 1010.44 1010.64 1010.84 1011.03 1011.18 1011.30 1011.38 1011.42 1011.42 1011.39 1011.33 1011.25 1011.16 1011.07 1010.97 1010.86 1010.75 1010.62 1010.48
1010.65 1010.29 1009.91 1009.54 1009.17 1008.84 1008.56 1008.34 1008.20 1008.14 1008.15 1008.23 1008.35 1008.52 1008.69 1008.87 1009.03 1009.18 1009.30 1009.40 1009.50 1009.60 1009.70 1009.82 1009.96 1010.11 1010.27 1010.43 1010.59 1010.72 1010.83 1010.91 1010.95 1010.97 1010.96 1010.93 1010.89 1010.84 1010.79 1010.73 1010.67 1010.61 1010.54 1010.46
1009.72 1009.37 1009.06 1008.76 1008.51 1008.30 1008.13 1008.02 1007.97 1007.98 1008.04 1008.15 1008.29 1008.46 1008.64 1008.81 1008.97 1009.12 1009.24 1009.34 1009.43 1009.51 1009.59 1009.67 1009.76 1009.87 1009.97 1010.08 1010.19 1010.28 1010.36 1010.42 1010.46 1010.48 1010.49 1010.48 1010.46 1010.44 1010.42 1010.40 1010.39 1010.38 1010.36 1010.35
1008.75 1008.46 1008.23 1008.06 1007.93 1007.86 1007.83 1007.84 1007.89 1007.97 1008.08 1008.22 1008.38 1008.55 1008.72 1008.90 1009.06 1009.20 1009.33 1009.43 1009.52 1009.59 1009.64 1009.69 1009.73 1009.77 1009.81 1009.85 1009.89 1009.92 1009.95 1009.97 1009.98 1009.98 1009.97 1009.96 1009.95 1009.94 1009.94 1009.94 1009.96 1009.99 1010.03 1010.07
1007.79 1007.59 1007.47 1007.43 1007.46 1007.53 1007.64 1007.78 1007.92 1008.07 1008.24 1008.40 1008.58 1008.76 1008.94 1009.12 1009.29 1009.45 1009.59 1009.71 1009.80 1009.86 1009.89 1009.90 1009.89 1009.87 1009.83 1009.79 1009.74 1009.69 1009.64 1009.58 1009.53 1009.48 1009.43 1009.39 1009.35 1009.33 1009.33 1009.34 1009.38 1009.43 1009.51 1009.60
1006.87 1006.77 1006.78 1006.88 1007.05 1007.27 1007.51 1007.76 1008.00 1008.23 1008.45 1008.65 1008.85 1009.05 1009.25 1009.45 1009.64 1009.83 1010.00 1010.14 1010.25 1010.31 1010.34 1010.32 1010.26 1010.17 1010.05 1009.91 1009.76 1009.61 1009.46 1009.31 1009.17 1009.03 1008.92 1008.81 1008.73 1008.67 1008.63 1008.63 1008.66 1008.72 1008.81 1008.92
1005.99 1006.00 1006.14 1006.37 1006.68 1007.03 1007.39 1007.75 1008.08 1008.38 1008.65 1008.89 1009.13 1009.36 1009.59 1009.83 1010.06 1010.29 1010.50 1010.68 1010.82 1010.90 1010.93 1010.89 1010.79 1010.64 1010.44 1010.22 1009.97 1009.70 1009.44 1009.19 1008.94 1008.71 1008.50 1008.31 1008.15 1008.02 1007.93 1007.88 1007.88 1007.92 1008.00 1008.12
1005.17 1005.29 1005.54 1005.89 1006.31 1006.78 1007.24 1007.69 1008.10 1008.46 1008.79 1009.09 1009.37 1009.65 1009.92 1010.21 1010.50 1010.78 1011.05 1011.27 1011.45 1011.56 1011.60 1011.55 1011.43 1011.24 1010.98 1010.67 1010.33 1009.97 1009.61 1009.24 1008.89 1008.56 1008.25 1007.97 1007.72 1007.51 1007.35 1007.23 1007.17 1007.16 1007.20 1007.28
1004.44 1004.65 1004.99 1005.44 1005.96 1006.51 1007.06 1007.59 1008.06 1008.49 1008.88 1009.23 1009.56 1009.89 1010.22 1010.56 1010.91 1011.25 1011.57 1011.86 1012.08 1012.22 1012.28 1012.24 1012.11 1011.89 1011.59 1011.23 1010.83 1010.39 1009.95 1009.50 1009.06 1008.63 1008.23 1007.87 1007.53 1007.24 1006.99 1006.80 1006.66 1006.57 1006.54 1006.56
1003.88 1004.15 1004.57 1005.09 1005.68 1006.29 1006.90 1007.48 1008.01 1008.50 1008.93 1009.34 1009.72 1010.10 1010.49 1010.88 1011.28 1011.67 1012.04 1012.37 1012.64 1012.82 1012.90 1012.88 1012.76 1012.53 1012.22 1011.84 1011.40 1010.93 1010.44 1009.94 1009.44 1008.96 1008.50 1008.06 1007.66 1007.29 1006.97 1006.69 1006.46 1006.29 1006.17 1006.10
1003.56 1003.89 1004.35 1004.91 1005.53 1006.18 1006.83 1007.44 1008.01 1008.54 1009.01 1009.46 1009.89 1010.31 1010.74 1011.17 1011.61 1012.04 1012.44 1012.80 1013.10 1013.30 1013.41 1013.42 1013.31 1013.10 1012.81 1012.43 1012.00 1011.53 1011.03 1010.53 1010.02 1009.52 1009.03 1008.56 1008.12 1007.70 1007.31 1006.97 1006.66 1006.40 1006.18 1006.01
1003.59 1003.94 1004.41 1004.99 1005.62 1006.28 1006.93 1007.55 1008.14 1008.68 1009.18 1009.65 1010.11 1010.55 1011.00 1011.45 1011.91 1012.35 1012.76 1013.13 1013.44 1013.66 1013.79 1013.81 1013.73 1013.56 1013.30 1012.96 1012.57 1012.13 1011.67 1011.20 1010.72 1010.24 1009.77 1009.31 1008.86 1008.42 1008.00 1007.61 1007.24 1006.91 1006.60 1006.33
1004.00 1004.35 1004.82 1005.37 1005.98 1006.61 1007.24 1007.85 1008.43 1008.96 1009.47 1009.94 1010.40 1010.85 1011.30 1011.74 1012.19 1012.62 1013.02 1013.37 1013.67 1013.89 1014.02 1014.06 1014.01 1013.87 1013.66 1013.37 1013.04 1012.67 1012.28 1011.87 1011.46 1011.04 1010.61 1010.19 1009.77 1009.35 1008.93 1008.52 1008.12 1007.74 1007.37 1007.02
1004.78 1005.10 1005.53 1006.03 1006.59 1007.17 1007.76 1008.32 1008.87 1009.38 1009.86 1010.32 1010.76 1011.19 1011.62 1012.04 1012.46 1012.85 1013.22 1013.54 1013.81 1014.01 1014.14 1014.18 1014.15 1014.05 1013.88 1013.66 1013.39 1013.10 1012.79 1012.46 1012.12 1011.78 1011.43 1011.07 1010.71 1010.33 1009.95 1009.55 1009.15 1008.76 1008.36 1007.96
1005.81 1006.09 1006.46 1006.89 1007.38 1007.88 1008.40 1008.91 1009.39 1009.86 1010.31 1010.74 1011.15 1011.56 1011.95 1012.34 1012.71 1013.06 1013.38 1013.66 1013.89 1014.06 1014.16 1014.20 1014.18 1014.10 1013.97 1013.80 1013.60 1013.38 1013.15 1012.90 1012.64 1012.38 1012.11 1011.83 1011.53 1011.22 1010.89 1010.54 1010.18 1009.80 1009.40 1009.00
1006.95 1007.17 1007.46 1007.81 1008.20 1008.63 1009.06 1009.49 1009.92 1010.34 1010.74 1011.14 1011.52 1011.89 1012.25 1012.59 1012.92 1013.22 1013.49 1013.72 1013.91 1014.04 1014.12 1014.15 1014.13 1014.06 1013.96 1013.83 1013.68 1013.51 1013.34 1013.16 1012.97 1012.78 1012.59 1012.38 1012.15 1011.91 1011.64 1011.36 1011.05 1010.71 1010.36 1009.98
1007.99 1008.15 1008.37 1008.63 1008.93 1009.26 1009.61 1009.98 1010.34 1010.71 1011.08 1011.44 1011.79 1012.13 1012.46 1012.77 1013.07 1013.33 1013.56 1013.75 1013.89 1013.99 1014.05 1014.06 1014.03 1013.96 1013.87 1013.76 1013.64 1013.51 1013.38 1013.24 1013.11 1012.98 1012.84 1012.69 1012.53 1012.35 1012.15 1011.93 1011.68 1011.40 1011.10 1010.78
1008.79 1008.88 1009.03 1009.21 1009.43 1009.69 1009.97 1010.27 1010.59 1010.92 1011.26 1011.60 1011.94 1012.26 1012.58 1012.87 1013.13 1013.37 1013.57 1013.72 1013.84 1013.91 1013.94 1013.93 1013.89 1013.82 1013.74 1013.63 1013.53 1013.42 1013.31 1013.21 1013.11 1013.01 1012.91 1012.80 1012.69 1012.56 1012.41 1012.25 1012.05 1011.84 1011.59 1011.31
1009.20 1009.26 1009.36 1009.48 1009.65 1009.85 1010.08 1010.35 1010.64 1010.95 1011.28 1011.61 1011.95 1012.27 1012.58 1012.87 1013.12 1013.34 1013.52 1013.65 1013.75 1013.80 1013.81 1013.79 1013.74 1013.67 1013.59 1013.49 1013.39 1013.29 1013.20 1013.11 1013.03 1012.95 1012.87 1012.79 1012.71 1012.61 1012.50 1012.37 1012.22 1012.04 1011.83 1011.59
1009.23 1009.27 1009.34 1009.44 1009.58 1009.76 1009.97 1010.23 1010.52 1010.83 1011.16 1011.51 1011.85 1012.18 1012.49 1012.78 1013.03 1013.24 1013.41 1013.53 1013.61 1013.65 1013.66 1013.63 1013.59 1013.52 1013.44 1013.35 1013.27 1013.18 1013.10 1013.03 1012.95 1012.89 1012.83 1012.76 1012.68 1012.60 1012.50 1012.38 1012.24 1012.07 1011.87 1011.64
Thickness
5758 5763 5760 5756 5756 5756 5749 5747 5741 5748 5753 5763 5769 5769 5771 5770 5768 5764 5760 5757 5753 5748 5744 5740 5735 5730 5724 5718 5714 5710 5703 5695 5689 5684 5679 5674 5670 5666 5662 5658 5655 5652 5649 5647
5750 5761 5759 5753 5757 5757 5755 5755 5753 5753 5755 5772 5775 5774 5771 5770 5766 5761 5759 5757 5754 5751 5746 5742 5737 5731 5725 5720 5716 5711 5704 5697 5692 5686 5681 5676 5672 5668 5664 5660 5657 5654 5651 5649
5736 5754 5751 5741 5759 5760 5759 5763 5758 5749 5758 5772 5769 5767 5767 5767 5765 5762 5759 5757 5753 5750 5747 5744 5740 5734 5728 5723 5718 5712 5706 5699 5693 5688 5682 5678 5674 5670 5666 5662 5659 5655 5653 5651
5735 5738 5720 5751 5777 5774 5766 5766 5770 5767 5769 5770 5769 5770 5770 5769 5765 5762 5759 5756 5752 5749 5747 5744 5742 5737 5731 5726 5719 5713 5706 5700 5695 5690 5684 5679 5675 5671 5668 5665 5661 5658 5655 5654
5730 5726 5737 5756 5769 5769 5760 5758 5773 5770 5770 5771 5773 5767 5765 5769 5767 5762 5759 5756 5752 5749 5746 5743 5739 5735 5730 5725 5719 5712 5706 5701 5697 5691 5685 5681 5676 5673 5670 5667 5663 5661 5658 5656
5728 5719 5720 5749 5771 5779 5764 5748 5773 5772 5767 5767 5765 5749 5750 5764 5763 5760 5757 5753 5749 5747 5744 5740 5736 5733 5726 5722 5717 5710 5706 5702 5698 5693 5688 5682 5678 5675 5672 5669 5666 5664 5661 5659
5719 5720 5738 5759 5770 5766 5737 5744 5769 5770 5767 5764 5758 5753 5758 5762 5759 5756 5752 5749 5747 5743 5739 5736 5734 5729 5723 5719 5714 5711 5707 5703 5698 5694 5690 5685 5681 5677 5674 5671 5668 5665 5663 5661
5726 5718 5730 5761 5761 5752 5752 5766 5766 5765 5764 5761 5759 5759 5758 5756 5753 5750 5746 5744 5742 5737 5734 5733 5731 5725 5719 5714 5713 5711 5706 5701 5697 5694 5691 5688 5683 5679 5675 5672 5668 5666 5664 5662
5742 5737 5752 5762 5760 5761 5765 5761 5761 5760 5761 5759 5755 5753 5752 5750 5748 5745 5742 5739 5736 5733 5730 5728 5726 5722 5715 5713 5712 5708 5704 5700 5697 5695 5692 5688 5684 5680 5676 5673 5669 5666 5664 5661
5745 5747 5753 5755 5757 5758 5759 5757 5757 5758 5756 5755 5750 5749 5746 5745 5743 5739 5736 5733 5731 5728 5724 5721 5720 5718 5713 5711 5709 5705 5701 5699 5697 5694 5692 5689 5685 5682 5677 5673 5669 5667 5664 5661
5741 5746 5746 5748 5751 5752 5752 5753 5753 5752 5751 5749 5746 5743 5741 5738 5736 5733 5730 5727 5725 5721 5717 5716 5715 5712 5709 5706 5704 5700 5698 5697 5695 5693 5691 5687 5685 5682 5678 5675 5671 5667 5664 5662
5736 5749 5747 5747 5750 5749 5746 5745 5745 5744 5742 5742 5740 5736 5734 5731 5729 5726 5723 5720 5717 5714 5712 5710 5709 5706 5703 5701 5698 5695 5692 5692 5690 5688 5687 5685 5682 5681 5680 5676 5674 5670 5667 5663
5753 5755 5752 5749 5747 5745 5742 5740 5740 5738 5735 5732 5732 5730 5727 5723 5721 5718 5715 5712 5709 5706 5704 5702 5700 5697 5695 5694 5691 5688 5686 5685 5684 5683 5681 5679 5678 5676 5674 5674 5672 5669 5666 5663
5750 5745 5737 5737 5736 5737 5736 5735 5733 5731 5728 5726 5723 5721 5719 5715 5712 5708 5705 5703 5701 5698 5695 5693 5690 5687 5687 5685 5683 5681 5680 5679 5678 5676 5675 5674 5674 5673 5672 5670 5668 5668 5667 5664
5740 5740 5736 5735 5731 5729 5728 5726 5722 5719 5717 5715 5714 5711 5708 5704 5700 5698 5696 5695 5692 5688 5685 5683 5679 5677 5677 5676 5674 5673 5672 5671 5670 5669 5669 5669 5668 5668 5668 5668 5666 5666 5666 5664
5732 5731 5728 5724 5721 5720 5718 5716 5712 5709 5707 5704 5702 5700 5698 5695 5691 5688 5686 5683 5679 5675 5672 5670 5667 5666 5666 5665 5663 5662 5662 5663 5662 5661 5661 5661 5661 5660 5660 5660 5660 5660 5659 5659
5721 5717 5715 5713 5712 5711 5710 5709 5705 5701 5698 5694 5692 5690 5687 5684 5680 5676 5674 5671 5668 5664 5661 5658 5656 5656 5656 5653 5651 5651 5652 5653 5653 5652 5651 5651 5650 5650 5651 5651 5651 5651 5652 5653
5723 5719 5716 5711 5707 5703 5701 5699 5695 5691 5687 5684 5682 5679 5675 5671 5667 5664 5662 5660 5656 5651 5648 5646 5644 5645 5643 5641 5639 5639 5640 5641 5641 5640 5640 5640 5639 5640 5640 5640 5640 5641 5642 5643
5713 5710 5707 5704 5700 5695 5691 5687 5683 5680 5676 5673 5670 5666 5663 5659 5656 5653 5650 5645 5641 5637 5635 5634 5633 5632 5630 5628 5627 5627 5628 5628 5628 5627 5627 5627 5627 5627 5627 5627 5627 5628 5628 5629
5697 5695 5692 5689 5686 5681 5677 5673 5670 5666 5664 5661 5657 5653 5650 5647 5644 5640 5636 5630 5626 5622 5622 5620 5620 5617 5616 5614 5613 5614 5614 5614 5613 5613 5613 5612 5612 5612 5612 5612 5612 5612 5612 5612
5678 5676 5673 5670 5667 5664 5661 5659 5655 5652 5650 5648 5644 5641 5637 5634 5631 5627 5623 5617 5613 5609 5609 5608 5606 5603 5601 5600 5601 5600 5600 5600 5599 5598 5597 5596 5596 5595 5595 5595 5594 5594 5594 5594
5657 5656 5654 5652 5649 5646 5645 5644 5641 5638 5636 5633 5630 5628 5624 5620 5617 5612 5608 5604 5601 5597 5595 5594 5591 5589 5588 5588 5587 5587 5586 5585 5584 5582 5580 5579 5578 5578 5577 5576 5576 5576 5575 5575
5639 5638 5636 5634 5633 5631 5630 5628 5626 5623 5620 5618 5615 5613 5610 5606 5603 5599 5594 5591 5588 5584 5581 5579 5577 5576 5576 5575 5575 5574 5572 5570 5568 5566 5564 5562 5561 5560 5558 5558 5557 5556 5555 5555
5623 5621 5620 5619 5618 5616 5613 5611 5610 5608 5605 5603 5601 5599 5596 5592 5589 5586 5582 5578 5575 5572 5569 5566 5565 5565 5564 5563 5562 5560 5558 5555 5553 5551 5548 5546 5544 5542 5540 5538 5537 5536 5535 5534
5606 5605 5604 5603 5601 5599 5599 5597 5594 5592 5590 5588 5586 5584 5582 5579 5576 5573 5569 5566 5562 5560 5558 5556 5554 5553 5551 5550 5548 5546 5543 5541 5538 5536 5534 5531 5528 5525 5523 5520 5518 5516 5515 5513
5589 5588 5588 5587 5586 5584 5584 5582 5580 5577 5576 5574 5572 5570 5568 5566 5563 5559 5556 5554 5552 5548 5546 5544 5543 5541 5539 5536 5534 5531 5529 5527 5524 5521 5518 5515 5512 5508 5505 5502 5500 5497 5495 5493
5572 5571 5569 5569 5569 5569 5569 5568 5566 5564 5563 5561 5559 5557 5555 5553 5550 5547 5545 5542 5539 5537 5534 5532 5530 5528 5525 5523 5520 5518 5515 5513 5509 5506 5502 5499 5495 5492 5488 5485 5481 5478 5476 5473